#timestamp,LO_Frequency,Hit,StdDev 
1548000015.5,286046997.2,N
1548000035.3,286046996.7,N
1548000055.2,286046995.2,N
1548000075.9,286046995.3,N
1548000095.7,286046997.2,N
1548000115.6,286046997.3,N
1548000135.4,286046999.5,N
1548000155.2,286046998.7,N
1548000175.1,286046998.6,N
1548000176.0,286046998.6,N
1548000195.8,286047001.0,N
1548000215.7,286046997.2,N
1548000235.5,286046997.4,N
1548000255.3,286046995.2,N
1548000275.2,286046995.2,N
1548000295.0,286046993.7,Y
1548000295.9,286046993.7,P
1548000315.8,286046997.6,N
1548000335.6,286046997.8,N
1548000355.4,286046997.6,N
1548000375.3,286046997.3,N
1548000395.1,286046998.0,N
1548000415.8,286046997.7,N
1548000435.7,286046997.9,N
1548000455.5,286046999.5,N
1548000475.4,286046999.0,N
1548000495.2,286047001.2,N
1548000515.0,286046998.8,N
1548000515.9,286046998.8,N
1548000535.8,286046998.4,N
1548000555.6,286046999.3,N
1548000575.4,286046999.6,N
1548000595.3,286046998.1,N
1548000615.1,286046999.7,N
1548000635.9,286046998.2,N
1548000655.7,286046999.3,N
1548000675.5,286047000.5,N
1548000695.4,286046998.1,N
1548000715.2,286047000.4,N
1548000735.0,286047000.0,N
1548000735.9,286047000.0,N
1548000755.8,286047000.2,N
1548000775.6,286047003.9,N
1548000795.5,286047005.6,Y
1548000815.3,286047007.5,P
1548000835.1,286047005.4,N
1548000855.9,286047001.8,N
1548000875.7,286047003.8,N
1548000895.5,286047001.5,N
1548000915.4,286046999.7,N
1548000935.2,286047000.1,N
1548000955.0,286047002.6,N
1548000956.0,286047002.6,N
1548000975.8,286047000.3,N
1548000995.6,286047002.6,N
1548001015.5,286047002.0,N
1548001035.3,286047002.0,N
1548001055.1,286047002.0,N
1548001075.9,286047001.3,N
1548001095.7,286047002.0,N
1548001115.5,286047002.5,N
1548001135.4,286047002.8,N
1548001155.2,286046998.1,N
1548001175.1,286047000.5,N
1548001176.0,286047000.5,N
1548001195.8,286047001.0,N
1548001215.6,286047000.1,N
1548001235.5,286047000.5,N
1548001255.3,286047001.0,N
1548001275.1,286046998.2,N
1548001295.9,286046998.1,N
1548001315.7,286046998.9,N
1548001335.6,286047001.1,N
1548001355.4,286046998.9,N
1548001375.2,286046998.9,N
1548001395.1,286046999.6,N
1548001396.0,286046999.6,N
1548001415.8,286046999.6,N
1548001435.6,286046998.4,N
1548001455.5,286046999.5,N
1548001475.3,286046996.7,N
1548001495.2,286046996.7,N
1548001515.9,286046999.1,N
1548001535.7,286046998.3,N
1548001555.6,286047000.5,N
1548001575.4,286047000.3,N
1548001595.2,286047001.0,N
1548001615.1,286047000.5,N
1548001616.0,286047000.5,N
1548001635.8,286046998.2,N
1548001655.7,286047000.8,N
1548001675.5,286047000.8,N
1548001695.3,286047000.2,N
1548001715.2,286047000.0,N
1548001735.9,286047000.4,N
1548001755.7,286047002.6,N
1548001775.6,286046999.9,N
1548001795.4,286046999.9,N
1548001815.2,286047000.8,N
1548001835.1,286047001.2,N
1548001836.0,286047001.2,N
1548001855.8,286046998.8,N
1548001875.7,286046999.4,N
1548001895.5,286046998.9,N
1548001915.3,286046999.6,N
1548001935.2,286046997.1,N
1548001955.0,286046997.3,N
1548001955.9,286046997.3,N
1548001975.8,286046997.8,N
1548001995.6,286046997.3,N
1548002015.4,286046997.6,N
1548002065.3,286046999.4,E
1548002075.2,286047001.2,N
1548002095.1,286047000.7,P
1548002096.0,286047000.7,N
1548002115.8,286047001.0,Y
1548002135.6,286047000.3,P
1548002155.5,286046999.7,N
1548002175.3,286047002.2,P
1548002195.1,286047001.7,N
1548002215.9,286047001.3,N
1548002235.7,286047001.6,N
1548002255.6,286047002.2,N
1548002275.4,286047002.8,Y
1548002295.2,286046999.4,P
1548002315.1,286046998.8,N
1548002316.0,286046998.8,N
1548002335.8,286047001.1,N
1548002355.6,286046998.6,N
1548002375.5,286046999.7,N
1548002395.3,286047000.3,N
1548002415.2,286046998.2,N
1548002435.9,286047000.6,N
1548002455.7,286047000.2,N
1548002475.6,286047000.0,N
1548002495.4,286047000.4,N
1548002515.2,286047000.8,N
1548002535.1,286046998.9,N
1548002536.0,286046998.9,N
1548002555.8,286047011.9,Y
1548002575.7,286046999.5,P
1548002595.5,286046996.7,P
1548002615.3,286046997.9,N
1548002635.2,286046997.9,N
1548002655.9,286046997.4,N
1548002675.7,286046994.9,Y
1548002695.6,286046998.6,P
1548002715.4,286046996.5,P
1548002735.3,286046999.0,N
1548002755.1,286046999.4,N
1548002756.0,286046999.4,N
1548002775.8,286046999.0,N
1548002795.7,286046998.6,N
1548002815.5,286047001.2,N
1548002835.3,286046998.7,N
1548002855.2,286047001.2,N
1548002875.0,286047000.1,N
1548002875.9,286047000.1,N
1548002895.8,286047002.2,N
1548002915.6,286047001.8,N
1548002935.4,286047002.0,N
1548002955.3,286047002.9,N
1548002975.1,286047002.9,N
1548002995.8,286047003.0,N
1548003015.7,286047003.6,N
1548003035.5,286047003.1,N
1548003055.4,286047003.9,N
1548003075.2,286047001.6,N
1548003095.0,286046999.8,N
1548003095.9,286046999.8,N
1548003115.8,286047002.8,N
1548003135.6,286046999.9,N
1548003155.4,286047001.2,N
1548003175.3,286046998.7,N
1548003195.1,286046999.9,N
1548003215.9,286046999.8,N
1548003235.7,286047002.2,N
1548003255.5,286047002.6,N
1548003275.4,286046999.7,N
1548003295.2,286047000.0,N
1548003315.0,286047000.9,N
1548003315.9,286047000.9,N
1548003335.8,286047000.6,N
1548003355.6,286046999.9,N
1548003375.5,286047001.0,N
1548003395.3,286047000.1,N
1548003415.1,286047000.5,N
1548003435.9,286047000.9,N
1548003455.7,286046999.0,N
1548003475.5,286046997.1,N
1548003495.4,286046997.9,N
1548003515.2,286046996.8,N
1548003535.1,286046999.1,N
1548003536.0,286046999.1,N
1548003555.8,286046997.7,N
1548003575.6,286046996.6,N
1548003595.5,286046997.0,N
